Tillbaka till svenska Fidonet
English   Information   Debug  
FILM   0/18
FNEWS_PUBLISH   5034
FN_SYSOP   42247
FN_SYSOP_OLD1   71952
FTP_FIDO   0/2
FTSC_PUBLIC   0/13979
FUNNY   0/4886
GENEALOGY.EUR   0/71
GET_INFO   105
GOLDED   0/408
HAM   1993/16786
HOLYSMOKE   0/6791
HOT_SITES   0/1
HTMLEDIT   0/71
HUB203   466
HUB_100   264
HUB_400   39
HUMOR   0/29
IC   1945/2851
INTERNET   0/424
INTERUSER   0/3
IP_CONNECT   719
JAMNNTPD   0/233
JAMTLAND   0/47
KATTY_KORNER   0/41
LAN   0/16
LINUX-USER   0/19
LINUXHELP   0/1155
LINUX   0/22427
LINUX_BBS   0/957
mail   18.68
mail_fore_ok   249
MENSA   0/341
MODERATOR   0/102
MONTE   0/992
MOSCOW_OKLAHOMA   0/1245
MUFFIN   0/783
MUSIC   142/321
N203_STAT   938
N203_SYSCHAT   313
NET203   321
NET204   69
NET_DEV   0/10
NORD.ADMIN   0/101
NORD.CHAT   0/2572
NORD.FIDONET   189
NORD.HARDWARE   0/28
NORD.KULTUR   0/114
NORD.PROG   0/32
NORD.SOFTWARE   0/88
NORD.TEKNIK   0/58
NORD   0/453
OCCULT_CHAT   4/93
OS2BBS   0/787
OS2DOSBBS   0/580
OS2HW   0/42
OS2INET   0/37
OS2LAN   0/134
OS2PROG   0/36
OS2REXX   0/113
OS2USER-L   207
OS2   0/4835
OSDEBATE   0/18996
PASCAL   0/490
PERL   0/457
PHP   0/45
POINTS   0/405
POLITICS   0/29554
POL_INC   0/14731
PSION   103
R20_ADMIN   1133
R20_AMATORRADIO   0/2
R20_BEST_OF_FIDONET   16
R20_CHAT   0/897
R20_DEPP   0/3
R20_DEV   400
R20_ECHO2   1934
R20_ECHOPRES   0/35
R20_ESTAT   0/719
R20_FIDONETPROG...
...RAM.MYPOINT
  0/2
R20_FIDONETPROGRAM   0/22
R20_FIDONET   0/248
R20_FILEFIND   0/24
R20_FILEFOUND   0/22
R20_HIFI   0/3
R20_INFO2   3827
R20_INTERNET   0/12940
R20_INTRESSE   0/60
R20_INTR_KOM   0/99
R20_KANDIDAT.CHAT   42
R20_KANDIDAT   28
R20_KOM_DEV   112
R20_KONTROLL   0/13360
R20_KORSET   0/18
R20_LOKALTRAFIK   0/24
R20_MODERATOR   0/1852
R20_NC   76
R20_NET200   245
R20_NETWORK.OTH...
...ERNETS
  0/13
R20_OPERATIVSYS...
...TEM.LINUX
  0/44
R20_PROGRAMVAROR   0/1
R20_REC2NEC   534
R20_SFOSM   0/341
R20_SF   0/108
R20_SPRAK.ENGLISH   0/1
R20_SQUISH   107
R20_TEST   2
R20_WORST_OF_FIDONET   20
RAR   0/9
RA_MULTI   106
RA_UTIL   0/162
REGCON.EUR   0/2072
REGCON   0/13
SCIENCE   0/1206
SF   0/239
SHAREWARE_SUPPORT   0/5146
SHAREWRE   0/14
SIMPSONS   0/169
STATS_OLD1   1125/2539.065
STATS_OLD2   0/2530
STATS_OLD3   0/2395.095
STATS_OLD4   0/1692.25
SURVIVOR   0/495
SYSOPS_CORNER   0/3
SYSOP   0/84
TAGLINES   0/112
TEAMOS2   0/4530
TECH   0/2617
TEST.444   0/105
TRAPDOOR   0/19
TREK   0/755
TUB   0/290
UFO   0/40
UNIX   0/1316
USA_EURLINK   0/102
USR_MODEMS   0/1
VATICAN   0/2740
VIETNAM_VETS   0/14
VIRUS   0/378
VIRUS_INFO   0/201
VISUAL_BASIC   0/473
WHITEHOUSE   0/5187
WIN2000   0/101
WIN32   0/30
WIN95   0/4291
WIN95_OLD1   52003/70272
WINDOWS   1262/1517
WWB_SYSOP   0/419
WWB_TECH   549/810
ZCC-PUBLIC   0/1
ZEC   4

 
4DOS   0/134
ABORTION   0/7
ALASKA_CHAT   0/506
ALLFIX_FILE   0/1313
ALLFIX_FILE_OLD1   0/7997
ALT_DOS   0/152
AMATEUR_RADIO   0/1039
AMIGASALE   0/14
AMIGA   0/331
AMIGA_INT   0/1
AMIGA_PROG   0/20
AMIGA_SYSOP   0/26
ANIME   0/15
ARGUS   0/924
ASCII_ART   0/340
ASIAN_LINK   0/651
ASTRONOMY   0/417
AUDIO   0/92
AUTOMOBILE_RACING   0/105
BABYLON5   0/17862
BAG   135
BATPOWER   238/361
BBBS.ENGLISH   0/382
BBSLAW   0/109
BBS_ADS   0/5290
BBS_INTERNET   0/507
BIBLE   228/3563
BINKD   0/1119
BINKLEY   0/215
BLUEWAVE   0/2173
CABLE_MODEMS   0/25
CBM   0/46
CDRECORD   0/66
CDROM   0/20
CLASSIC_COMPUTER   0/378
COMICS   0/15
CONSPRCY   0/899
COOKING   42383
COOKING_OLD1   0/24719
COOKING_OLD2   0/40862
COOKING_OLD3   0/37489
COOKING_OLD4   15447/35496
COOKING_OLD5   9370
C_ECHO   0/189
C_PLUSPLUS   0/31
DIRTY_DOZEN   0/201
DOORGAMES   0/2388
DOS_INTERNET   0/196
duplikat   6102
ECHOLIST   17944/18295
EC_SUPPORT   174/318
ELECTRONICS   0/359
ELEKTRONIK.GER   1534
ENET.LINGUISTIC   0/13
ENET.POLITICS   0/4
ENET.SOFT   0/11701
ENET.SYSOP   34411
ENET.TALKS   0/32
ENGLISH_TUTOR   0/2000
EVOLUTION   0/1335
FDECHO   0/217
FDN_ANNOUNCE   3346/7068
FIDONEWS   25226
FIDONEWS_OLD1   0/49742
FIDONEWS_OLD2   0/35949
FIDONEWS_OLD3   0/30874
FIDONEWS_OLD4   0/37224
FIDO_SYSOP   12977
FIDO_UTIL   0/180
FILEFIND   0/209
FILEGATE   0/212
Möte HAM, 16786 texter
 lista första sista föregående nästa
Text 235, 736 rader
Skriven 2005-02-11 02:16:10 av Amsat List (1:323/120.0)
Ärende: 
========
SB KEPS @ AMSAT  $ORB05041.O
Orbital Elements  05041.OSCAR

HR AMSAT ORBITAL ELEMENTS FOR OSCAR SATELLITES
FROM WA5QGD FORT WORTH,TX February 10, 2005
SEND SUBSCRIBE/UNSUBSCRIBE TO majordomo@amsat.org ONLY
BID: ORB05041.O
TO ALL RADIO AMATEURS BT

Satellite: AO-07
Catalog number: 07530
Epoch time:      05040.70114405
Element set:    0390
Inclination:      101.6462 deg
RA of node:       089.3936 deg
Eccentricity:    0.0012451
Arg of perigee:   122.4496 deg
Mean anomaly:     237.7781 deg
Mean motion:   12.53570564 rev/day
Decay rate:       -2.8e-07 rev/day^2
Epoch rev:           38367
Checksum:              286

Satellite: AO-10
Catalog number: 14129
Epoch time:      05040.05074074
Element set:    0150
Inclination:      027.0478 deg
RA of node:       047.6214 deg
Eccentricity:    0.6031931
Arg of perigee:   163.8198 deg
Mean anomaly:     230.2752 deg
Mean motion:   02.05868025 rev/day
Decay rate:      -1.78e-06 rev/day^2
Epoch rev:           16289
Checksum:              281

Satellite: UO-11
Catalog number: 14781
Epoch time:      05040.90194205
Element set:    0710
Inclination:      098.1960 deg
RA of node:       035.9481 deg
Eccentricity:    0.0009981
Arg of perigee:   052.8814 deg
Mean anomaly:     307.3304 deg
Mean motion:   14.79157811 rev/day
Decay rate:       7.12e-06 rev/day^2
Epoch rev:           12298
Checksum:              294

Satellite: RS-10/11
Catalog number: 18129
Epoch time:      05040.83574468
Element set:    0615
Inclination:      082.9298 deg
RA of node:       332.3390 deg
Eccentricity:    0.0012579
Arg of perigee:   027.6252 deg
Mean anomaly:     332.5588 deg
Mean motion:   13.72753171 rev/day
Decay rate:       -3.8e-07 rev/day^2
Epoch rev:           88360
Checksum:              318

Satellite: FO-20
Catalog number: 20480
Epoch time:      05040.61139670
Element set:    0819
Inclination:      099.0185 deg
RA of node:       239.0968 deg
Eccentricity:    0.0540240
Arg of perigee:   168.7372 deg
Mean anomaly:     192.6391 deg
Mean motion:   12.83344563 rev/day
Decay rate:       -3.7e-07 rev/day^2
Epoch rev:           70313
Checksum:              300

Satellite: RS-12/13
Catalog number: 21089
Epoch time:      05040.40997640
Element set:    0836
Inclination:      082.9236 deg
RA of node:       005.7126 deg
Eccentricity:    0.0030966
Arg of perigee:   076.0000 deg
Mean anomaly:     284.4593 deg
Mean motion:   13.74446842 rev/day
Decay rate:        7.5e-07 rev/day^2
Epoch rev:           70294
Checksum:              303

Satellite: RS-15
Catalog number: 23439
Epoch time:      05040.95456952
Element set:    0882
Inclination:      064.8238 deg
RA of node:       313.3209 deg
Eccentricity:    0.0160764
Arg of perigee:   338.5748 deg
Mean anomaly:     020.8496 deg
Mean motion:   11.27551129 rev/day
Decay rate:       -3.9e-07 rev/day^2
Epoch rev:           41704
Checksum:              316

Satellite: FO-29
Catalog number: 24278
Epoch time:      05040.71267547
Element set:    0889
Inclination:      098.5655 deg
RA of node:       107.3969 deg
Eccentricity:    0.0351404
Arg of perigee:   146.5769 deg
Mean anomaly:     215.8129 deg
Mean motion:   13.52907609 rev/day
Decay rate:      -4.70e-06 rev/day^2
Epoch rev:           41895
Checksum:              354

Satellite: SO-33
Catalog number: 25509
Epoch time:      05040.39022508
Element set:    0298
Inclination:      031.4315 deg
RA of node:       034.9253 deg
Eccentricity:    0.0355523
Arg of perigee:   129.1204 deg
Mean anomaly:     234.1586 deg
Mean motion:   14.27963082 rev/day
Decay rate:        9.6e-07 rev/day^2
Epoch rev:           32854
Checksum:              288

Satellite: AO-40
Catalog number: 26609
Epoch time:      05039.13742466
Element set:    0496
Inclination:      008.6395 deg
RA of node:       321.2192 deg
Eccentricity:    0.7963236
Arg of perigee:   005.8350 deg
Mean anomaly:     359.4043 deg
Mean motion:   01.25586686 rev/day
Decay rate:      -3.46e-06 rev/day^2
Epoch rev:           01964
Checksum:              323

/EX
SB KEPS @ AMSAT  $ORB05041.D
Orbital Elements  05041.MICROS

HR AMSAT ORBITAL ELEMENTS FOR THE MICROSATS
FROM WA5QGD FORT WORTH,TX February 10, 2005
SEND SUBSCRIBE/UNSUBSCRIBE TO majordomo@amsat.org ONLY
BID: ORB05041.D
TO ALL RADIO AMATEURS BT

Satellite: UO-14
Catalog number: 20437
Epoch time:      05040.55284610
Element set:    0708
Inclination:      098.1980 deg
RA of node:       057.3883 deg
Eccentricity:    0.0010167
Arg of perigee:   209.8560 deg
Mean anomaly:     150.2053 deg
Mean motion:   14.31397456 rev/day
Decay rate:        6.1e-07 rev/day^2
Epoch rev:           78577
Checksum:              301

Satellite: AO-16
Catalog number: 20439
Epoch time:      05040.58081869
Element set:    0394
Inclination:      098.2230 deg
RA of node:       072.5484 deg
Eccentricity:    0.0010359
Arg of perigee:   218.1419 deg
Mean anomaly:     141.9037 deg
Mean motion:   14.31658084 rev/day
Decay rate:        6.0e-08 rev/day^2
Epoch rev:           78583
Checksum:              307

Satellite: WO-18
Catalog number: 20441
Epoch time:      05040.73185702
Element set:    0586
Inclination:      098.2334 deg
RA of node:       076.9389 deg
Eccentricity:    0.0010909
Arg of perigee:   218.8801 deg
Mean anomaly:     141.1604 deg
Mean motion:   14.31732740 rev/day
Decay rate:        1.0e-07 rev/day^2
Epoch rev:           78591
Checksum:              290

Satellite: LO-19
Catalog number: 20442
Epoch time:      05040.62539685
Element set:    0322
Inclination:      098.2407 deg
RA of node:       081.1480 deg
Eccentricity:    0.0011373
Arg of perigee:   218.5785 deg
Mean anomaly:     141.4588 deg
Mean motion:   14.31904749 rev/day
Decay rate:        1.5e-07 rev/day^2
Epoch rev:           78596
Checksum:              310

